Weather History for Palma de Mallorca, Spain

Change the Weather History Date:

Monday, December 2, 2013

  Actual Average Record
Temperature  
Mean Temperature 52 °F -  
Max Temperature 56 °F 59 °F 68 °F (1996)
Min Temperature 47 °F 41 °F 35 °F (2012)
Degree Days  
Heating Degree Days 14    
Growing Degree Days 2 (Base 50)    
Moisture  
Dew Point 42 °F    
Average Humidity 67    
Maximum Humidity 87    
Minimum Humidity 40    
Precipitation  
Precipitation 0.00 in 0.06 in - ()
Sea Level Pressure  
Sea Level Pressure 30.07 in    
Wind  
Wind Speed 8 mph ()    
Max Wind Speed 16 mph    
Max Gust Speed -    
Visibility 6.6 miles    
Events      
Averages and records for this station are not official NWS values.
T = Trace of Precipitation, MM = Missing Value Source: Averaged Metar Reports

Daily Weather History Graph

Daily Weather History Graph

Search for Another Location

Airport:

Trip Planner

Search our weather history database for the weather conditions in past years. The results will help you decide how hot, cold, wet, or windy it might be!

Date:

Astronomy

Dec. 02, 2013 Rise Set
Actual Time 7:51 AM CET 5:25 PM CET
Civil Twilight 7:21 AM CET 5:55 PM CET
Nautical Twilight 6:48 AM CET 6:28 PM CET
Astronomical Twilight 6:15 AM CET 7:01 PM CET
Moon 6:59 AM CET (12/2) 5:13 PM CET (12/2)
Length of Visible Light 10h 33m
Length of Day
9h 33m
Waning Crescent, 0% of the Moon is Illuminated
Dec 2
Waning Crescent
Dec 3
New
Dec 9
First Quarter
Dec 17
Full
Dec 25
Last Quarter

Hourly Weather History & Observations

Time (CET) Temp. Dew Point Humidity Pressure Visibility Wind Dir Wind Speed Gust Speed Precip Events Conditions
12:00 AM 50 °F 41 °F 62% 30.03 in - ENE 11.5 mph - -  
12:00 AM 50.0 °F 41.0 °F 71% 30.01 in 6.2 mi NE 11.5 mph - N/A   Partly Cloudy
12:30 AM 50.0 °F 41.0 °F 71% 30.01 in 6.2 mi NE 12.7 mph - N/A   Partly Cloudy
1:00 AM 51 °F 41 °F 59% 30.03 in 12 mi ENE 16.1 mph - -   Partly Cloudy
1:30 AM 50.0 °F 41.0 °F 71% 30.01 in 6.2 mi ENE 12.7 mph - N/A   Partly Cloudy
2:00 AM 51 °F 40 °F 55% 30.02 in - ENE 12.7 mph - -  
2:00 AM 50.0 °F 41.0 °F 71% 30.01 in 6.2 mi ENE 11.5 mph - N/A   Partly Cloudy
2:30 AM 50.0 °F 41.0 °F 71% 30.01 in 6.2 mi ENE 13.8 mph - N/A   Partly Cloudy
3:00 AM 51 °F 40 °F 57% 30.04 in - ENE 15.0 mph - -  
3:00 AM 50.0 °F 41.0 °F 71% 30.04 in 6.2 mi NE 15.0 mph - N/A   Partly Cloudy
3:30 AM 50.0 °F 41.0 °F 71% 30.04 in 6.2 mi NE 15.0 mph - N/A   Partly Cloudy
4:00 AM 50.0 °F 41.0 °F 71% 30.01 in 6.2 mi NE 9.2 mph - N/A   Partly Cloudy
4:30 AM 50.0 °F 41.0 °F 71% 30.01 in 6.2 mi NE 9.2 mph - N/A   Partly Cloudy
5:00 AM 49 °F 41 °F 64% 30.03 in - NE 4.6 mph - -  
5:00 AM 48.2 °F 41.0 °F 76% 30.01 in 6.2 mi NE 9.2 mph - N/A   Partly Cloudy
5:30 AM 48.2 °F 41.0 °F 76% 30.01 in 6.2 mi ENE 8.1 mph - N/A   Partly Cloudy
6:00 AM 49 °F 41 °F 67% 30.03 in - East 4.6 mph - -  
6:00 AM 48.2 °F 42.8 °F 82% 30.01 in 6.2 mi ENE 6.9 mph - N/A   Partly Cloudy
6:30 AM 48.2 °F 41.0 °F 76% 30.01 in 6.2 mi ENE 8.1 mph - N/A   Partly Cloudy
7:00 AM 50 °F 41 °F 62% 30.05 in 12 mi NNE 2.3 mph - -   Scattered Clouds
7:00 AM 50.0 °F 41.0 °F 71% 30.04 in 6.2 mi NE 5.8 mph - N/A   Partly Cloudy
7:30 AM 48.2 °F 42.8 °F 82% 30.04 in 6.2 mi NNE 4.6 mph - N/A   Partly Cloudy
8:00 AM 49 °F 41 °F 66% 30.06 in - ENE 2.3 mph - -  
8:00 AM 50.0 °F 41.0 °F 71% 30.04 in 6.2 mi Variable 2.3 mph - N/A   Partly Cloudy
8:30 AM 48.2 °F 42.8 °F 82% 30.06 in 6.2 mi Calm Calm - N/A   Partly Cloudy
9:00 AM 49 °F 42 °F 69% 30.08 in - Calm Calm - -  
9:00 AM 48.2 °F 42.8 °F 82% 30.06 in 6.2 mi Calm Calm - N/A   Partly Cloudy
9:30 AM 50.0 °F 42.8 °F 76% 30.06 in 6.2 mi Calm Calm - N/A   Scattered Clouds
10:00 AM 51.8 °F 42.8 °F 71% 30.06 in 6.2 mi Calm Calm - N/A   Scattered Clouds
10:30 AM 55.4 °F 42.8 °F 63% 30.09 in 6.2 mi Variable 1.2 mph - N/A   Scattered Clouds
11:00 AM 55 °F 44 °F 56% 30.10 in - NNW 1.2 mph - -  
11:00 AM 55.4 °F 44.6 °F 67% 30.09 in 6.2 mi NE 10.4 mph - N/A   Scattered Clouds
11:30 AM 55.4 °F 41.0 °F 58% 30.09 in 6.2 mi NE 10.4 mph - N/A   Partly Cloudy
12:00 PM 56 °F 39 °F 40% 30.10 in - NE 6.9 mph - -  
12:00 PM 55.4 °F 41.0 °F 58% 30.09 in 6.2 mi NE 8.1 mph - N/A   Partly Cloudy
12:30 PM 55.4 °F 42.8 °F 63% 30.06 in 6.2 mi NE 9.2 mph - N/A   Partly Cloudy
1:00 PM 55 °F 41 °F 49% 30.09 in 12 mi NE 8.1 mph - -   Overcast
1:00 PM 55.4 °F 42.8 °F 63% 30.06 in 6.2 mi NE 9.2 mph - N/A   Scattered Clouds
1:30 PM 55.4 °F 41.0 °F 58% 30.06 in 6.2 mi NNE 12.7 mph - N/A   Scattered Clouds
2:00 PM 55 °F 39 °F 44% 30.08 in - NNE 10.4 mph - -  
2:00 PM 55.4 °F 41.0 °F 58% 30.06 in 6.2 mi NNE 10.4 mph - N/A   Scattered Clouds
2:30 PM 55.4 °F 39.2 °F 54% 30.06 in 6.2 mi NNE 11.5 mph - N/A   Scattered Clouds
3:00 PM 56 °F 40 °F 43% 30.08 in - NNE 9.2 mph - -  
3:00 PM 55.4 °F 39.2 °F 54% 30.06 in 6.2 mi NNE 10.4 mph - N/A   Scattered Clouds
3:30 PM 55.4 °F 42.8 °F 63% 30.06 in 6.2 mi NNE 10.4 mph - N/A   Scattered Clouds
4:00 PM 53.6 °F 41.0 °F 62% 30.06 in 6.2 mi North 13.8 mph - N/A   Scattered Clouds
4:30 PM 53.6 °F 41.0 °F 62% 30.06 in 6.2 mi North 13.8 mph - N/A   Scattered Clouds
5:00 PM 53 °F 40 °F 51% 30.09 in - North 6.9 mph - -  
5:00 PM 53.6 °F 41.0 °F 62% 30.06 in 6.2 mi North 11.5 mph - N/A   Partly Cloudy
5:30 PM 53.6 °F 41.0 °F 62% 30.09 in 6.2 mi North 6.9 mph - N/A   Partly Cloudy
6:00 PM 52 °F 41 °F 56% 30.12 in - North 3.5 mph - -  
6:00 PM 51.8 °F 41.0 °F 67% 30.09 in 6.2 mi Variable 2.3 mph - N/A   Partly Cloudy
6:30 PM 51.8 °F 41.0 °F 67% 30.09 in 6.2 mi Variable 2.3 mph - N/A   Scattered Clouds
7:00 PM 52 °F 39 °F 51% 30.12 in 9 mi NNW 3.5 mph - -   Partly Cloudy
7:00 PM 51.8 °F 39.2 °F 62% 30.09 in 6.2 mi Calm Calm - N/A   Scattered Clouds
7:30 PM 50.0 °F 41.0 °F 71% 30.12 in 6.2 mi Calm Calm - N/A   Scattered Clouds
8:00 PM 51 °F 41 °F 60% 30.14 in - Calm Calm - -  
8:00 PM 51.8 °F 41.0 °F 67% 30.12 in 6.2 mi Calm Calm - N/A   Scattered Clouds
8:30 PM 51.8 °F 42.8 °F 71% 30.12 in 6.2 mi South 2.3 mph - N/A   Scattered Clouds
9:00 PM 49 °F 44 °F 78% 30.15 in - NE 2.3 mph - -  
9:00 PM 50.0 °F 44.6 °F 82% 30.12 in 6.2 mi SSE 1.2 mph - N/A   Mostly Cloudy
9:30 PM 50.0 °F 44.6 °F 82% 30.15 in 6.2 mi Calm Calm - N/A   Mostly Cloudy
10:00 PM 48.2 °F 44.6 °F 87% 30.15 in 6.2 mi ENE 2.3 mph - N/A   Mostly Cloudy
10:30 PM 50.0 °F 44.6 °F 82% 30.15 in 6.2 mi Calm Calm - N/A   Mostly Cloudy
11:00 PM 49 °F 45 °F 83% 30.17 in - East 2.3 mph - -  
11:00 PM 50.0 °F 46.4 °F 87% 30.15 in 6.2 mi ENE 2.3 mph - N/A   Mostly Cloudy
11:30 PM 50.0 °F 44.6 °F 82% 30.15 in 6.2 mi Variable 1.2 mph - N/A   Mostly Cloudy